GW3919 Weather Reports


Display with metric or nautical units.
time (UTC)temp
F
wind
direction
speed
MPH
gust
MPH
rain 1hr
in
rain 24hr
in
rain mn
in
humidity
%
barometer
mb
20260506160812 55 83 1.0 5.0 0.00 0.06 0.06 95 1014.8
20260506160308 55 285 1.0 4.0 0.00 0.06 0.06 96 1014.6
20260506155807 55 258 3.0 4.0 0.00 0.06 0.06 97 1014.7
20260506155305 54 328 0.0 4.0 0.00 0.06 0.06 96 1014.7
20260506153415 54 323 0.0 5.0 0.26 0.04 0.04 96 1013.9
20260506152913 54 131 4.0 8.0 0.09 0.02 0.02 93 1014.4
20260506152409 55 154 3.0 7.0 0.00 0.00 0.00 90 1015.5
20260506151908 55 146 0.0 3.0 0.00 0.00 0.00 88 1016.0
20260506151404 55 140 0.0 2.0 0.00 0.00 0.00 87 1016.3
20260506150902 55 135 3.0 6.0 0.00 0.00 0.00 86 1015.4
20260506150358 55 146 5.0 8.0 0.00 0.00 0.00 87 1015.3
20260506145855 55 18 0.0 6.0 0.00 0.00 0.00 87 1014.8
20260506145351 55 149 2.0 4.0 0.00 0.00 0.00 88 1014.9
20260506144849 55 149 2.0 6.0 0.00 0.00 0.00 87 1014.7
20260506144345 55 177 2.0 5.0 0.00 0.00 0.00 87 1014.1
20260506143844 55 175 1.0 5.0 0.00 0.00 0.00 87 1014.4
20260506143340 55 123 3.0 5.0 0.00 0.00 0.00 87 1014.2
20260506142839 55 143 8.0 9.0 0.00 0.00 0.00 87 1014.5
20260506142336 55 149 3.0 8.0 0.00 0.00 0.00 87 1014.0
20260506141834 55 119 3.0 6.0 0.00 0.00 0.00 87 1014.4
20260506141332 55 126 4.0 7.0 0.00 0.00 0.00 87 1014.3
20260506140830 55 136 3.0 7.0 0.00 0.00 0.00 87 1014.1
20260506140327 55 180 2.0 8.0 0.00 0.00 0.00 87 1014.4
20260506135824 55 136 6.0 7.0 0.00 0.00 0.00 87 1013.9
20260506135321 55 271 2.0 4.0 0.00 0.00 0.00 87 1013.7
20260506134817 55 110 1.0 5.0 0.00 0.00 0.00 87 1013.7
20260506134313 55 133 3.0 3.0 0.00 0.00 0.00 86 1013.7
20260506133811 55 139 3.0 6.0 0.00 0.00 0.00 86 1013.5
20260506133307 55 138 3.0 8.0 0.00 0.00 0.00 87 1013.6
20260506132803 55 133 4.0 8.0 0.00 0.00 0.00 87 1013.5
20260506132301 55 175 6.0 8.0 0.00 0.00 0.00 87 1013.5
20260506131759 55 98 1.0 6.0 0.00 0.00 0.00 86 1013.0
20260506131254 55 216 0.0 6.0 0.00 0.00 0.00 86 1013.4
20260506130751 55 75 1.0 5.0 0.00 0.00 0.00 86 1013.2
20260506130248 55 143 3.0 5.0 0.00 0.00 0.00 86 1013.4
20260506125747 55 177 2.0 5.0 0.00 0.00 0.00 86 1013.3
20260506125244 55 156 4.0 8.0 0.00 0.00 0.00 85 1013.3
20260506124742 55 154 3.0 6.0 0.00 0.00 0.00 85 1013.0
20260506124239 55 116 2.0 6.0 0.00 0.00 0.00 84 1013.0
20260506123737 55 63 2.0 7.0 0.00 0.00 0.00 84 1012.9
20260506123236 56 147 3.0 9.0 0.00 0.00 0.00 84 1012.7
20260506122732 56 141 2.0 6.0 0.00 0.00 0.00 83 1012.7
20260506122229 56 93 2.0 5.0 0.00 0.00 0.00 83 1012.6
20260506121728 56 142 3.0 6.0 0.00 0.00 0.00 83 1012.4
20260506121224 56 142 4.0 6.0 0.00 0.00 0.00 83 1012.5
20260506120722 56 137 3.0 6.0 0.00 0.00 0.00 83 1012.7
20260506120219 56 178 2.0 6.0 0.00 0.00 0.00 83 1012.8
20260506115717 56 316 2.0 4.0 0.00 0.00 0.00 83 1012.5
20260506115214 56 139 2.0 5.0 0.00 0.00 0.00 83 1012.5
20260506114712 56 99 2.0 9.0 0.00 0.00 0.00 82 1012.5
20260506114209 56 143 6.0 11.0 0.00 0.00 0.00 82 1012.2
20260506113708 56 138 3.0 10.0 0.00 0.00 0.00 82 1011.9
20260506113205 56 133 3.0 8.0 0.00 0.00 0.00 82 1011.7
20260506112701 57 72 4.0 7.0 0.00 0.00 0.00 81 1011.9
20260506112159 57 149 5.0 6.0 0.00 0.00 0.00 81 1012.0
20260506111656 57 132 5.0 8.0 0.00 0.00 0.00 81 1011.9
20260506111154 57 187 4.0 8.0 0.00 0.00 0.00 81 1011.4
20260506110651 58 130 4.0 6.0 0.00 0.00 0.00 80 1011.7
20260506110148 58 127 3.0 5.0 0.00 0.00 0.00 80 1011.6
20260506105644 58 134 3.0 5.0 0.00 0.00 0.00 81 1011.4
20260506105141 58 134 3.0 7.0 0.00 0.00 0.00 80 1011.5
20260506104640 59 81 1.0 4.0 0.00 0.00 0.00 81 1011.1
20260506104137 59 142 6.0 6.0 0.00 0.00 0.00 81 1011.0
20260506103634 59 149 3.0 5.0 0.00 0.00 0.00 81 1011.0
20260506103131 59 143 6.0 7.0 0.00 0.00 0.00 81 1010.9
20260506102629 59 124 6.0 8.0 0.00 0.00 0.00 81 1010.8
20260506102126 59 137 5.0 10.0 0.00 0.00 0.00 80 1010.9
20260506101623 59 125 4.0 5.0 0.00 0.00 0.00 80 1010.7
20260506101119 59 145 4.0 9.0 0.00 0.00 0.00 80 1010.5
20260506100618 59 120 3.0 3.0 0.00 0.00 0.00 80 1010.4
20260506100116 59 154 2.0 5.0 0.00 0.00 0.00 79 1010.5
20260506095614 59 122 4.0 6.0 0.00 0.00 0.00 80 1010.6
20260506095111 59 147 3.0 5.0 0.00 0.00 0.00 80 1010.3
20260506094608 59 109 2.0 6.0 0.00 0.00 0.00 79 1010.3
20260506094106 59 137 2.0 4.0 0.00 0.00 0.00 80 1010.4
20260506093604 59 131 2.0 5.0 0.00 0.00 0.00 80 1010.4
20260506093101 59 160 3.0 5.0 0.00 0.00 0.00 80 1010.3
20260506092559 59 154 3.0 5.0 0.00 0.00 0.00 79 1010.4
20260506092055 59 105 0.0 6.0 0.00 0.00 0.00 80 1010.4
20260506091554 60 143 3.0 5.0 0.00 0.00 0.00 80 1010.2
20260506091051 60 65 2.0 4.0 0.00 0.00 0.00 80 1010.3
20260506090548 60 140 3.0 5.0 0.00 0.00 0.00 80 1010.0
20260506090044 60 124 3.0 5.0 0.00 0.00 0.00 81 1010.0
20260506085542 60 140 4.0 6.0 0.00 0.00 0.00 81 1010.0
20260506085038 60 166 0.0 2.0 0.00 0.00 0.00 81 1009.8
20260506084535 60 134 1.0 4.0 0.00 0.00 0.00 82 1009.6
20260506084031 61 178 2.0 2.0 0.00 0.00 0.00 82 1009.8
20260506083528 61 3 2.0 3.0 0.00 0.00 0.00 82 1009.8
20260506083026 61 140 1.0 4.0 0.00 0.00 0.00 81 1009.5
20260506082522 61 278 1.0 2.0 0.00 0.00 0.00 81 1009.4
20260506082018 61 135 0.0 2.0 0.00 0.00 0.00 82 1009.3
20260506081516 61 225 2.0 2.0 0.00 0.00 0.00 82 1009.3
20260506081014 61 201 1.0 2.0 0.00 0.00 0.00 82 1009.5
20260506080511 61 155 0.0 4.0 0.00 0.00 0.00 82 1009.4
20260506073454 61 149 2.0 4.0 0.00 0.00 0.00 82 1009.8
20260506072952 61 188 4.0 4.0 0.00 0.00 0.00 82 1009.8
20260506072449 61 205 3.0 5.0 0.00 0.00 0.00 82 1009.8
20260506071947 62 158 2.0 2.0 0.00 0.00 0.00 82 1009.6
20260506071444 62 212 0.0 3.0 0.00 0.00 0.00 82 1009.7
20260506070941 62 138 2.0 3.0 0.00 0.00 0.00 82 1009.7
20260506070438 62 137 1.0 4.0 0.00 0.00 0.00 82 1009.5
20260506062416 62 163 1.0 5.0 0.00 0.00 0.00 83 1009.5
20260506061911 62 142 2.0 4.0 0.00 0.00 0.00 83 1009.5
20260506061408 62 118 6.0 6.0 0.00 0.00 0.00 83 1009.5
20260506060906 63 120 0.0 5.0 0.00 0.00 0.00 83 1009.7
20260506060404 63 141 2.0 6.0 0.00 0.00 0.00 83 1009.4
20260506051336 65 132 3.0 5.0 0.00 0.00 0.00 82 1009.2
20260506050833 65 163 2.0 4.0 0.00 0.00 0.00 83 1009.3
20260506050330 65 150 4.0 7.0 0.00 0.00 0.00 83 1009.2
20260506044821 66 149 3.0 4.0 0.00 0.19 0.19 83 1009.2
20260506044319 66 139 4.0 8.0 0.00 0.19 0.19 83 1009.4
20260506043815 67 113 2.0 6.0 0.00 0.19 0.19 83 1009.1
20260506043313 67 162 4.0 7.0 0.00 0.19 0.19 83 1009.3
20260506042811 68 173 9.0 9.0 0.00 0.19 0.19 82 1008.9
20260506042310 68 137 3.0 7.0 0.00 0.19 0.19 83 1008.9
20260506041808 69 163 2.0 4.0 0.00 0.19 0.19 83 1008.7
20260506041305 69 149 2.0 3.0 0.00 0.19 0.19 83 1008.7
20260506040802 69 157 3.0 5.0 0.00 0.19 0.19 83 1008.2
20260506040259 69 152 2.0 6.0 0.00 0.19 0.19 83 1008.5
20260506035756 69 149 3.0 6.0 0.00 0.19 0.19 82 1008.6
20260506035253 70 138 3.0 5.0 0.00 0.19 0.19 83 1008.4
20260506034750 70 78 2.0 6.0 0.00 0.19 0.19 83 1008.3
20260506034247 70 128 3.0 5.0 0.00 0.19 0.19 83 1008.4
20260506033744 70 165 2.0 5.0 0.00 0.19 0.19 83 1008.2
20260506033241 70 170 2.0 4.0 0.00 0.19 0.19 83 1008.0
20260506032738 71 171 3.0 4.0 0.00 0.19 0.19 83 1008.2
20260506032235 71 140 3.0 4.0 0.00 0.19 0.19 83 1008.0
20260506031731 71 123 1.0 5.0 0.00 0.19 0.19 84 1007.8
20260506031229 71 152 5.0 6.0 0.00 0.19 0.19 82 1007.8
20260506030727 72 118 2.0 7.0 0.00 0.19 0.19 83 1007.9
20260506030224 72 134 4.0 5.0 0.00 0.19 0.19 83 1007.7
20260506025721 72 158 2.0 6.0 0.00 0.19 0.19 84 1007.7
20260506025217 72 160 2.0 4.0 0.00 0.19 0.19 83 1007.6
20260506024714 72 159 2.0 3.0 0.00 0.19 0.19 83 1007.2
20260506024211 72 136 6.0 9.0 0.00 0.19 0.19 83 1007.0
20260506023707 72 143 4.0 7.0 0.00 0.19 0.19 84 1007.0
20260506023205 72 184 1.0 3.0 0.00 0.19 0.19 87 1006.7
20260506022701 72 99 1.0 3.0 0.00 0.19 0.19 88 1006.5
20260506022159 72 83 1.0 3.0 0.00 0.19 0.19 88 1006.4
20260506021657 72 233 0.0 2.0 0.00 0.19 0.19 87 1006.3
20260506021154 73 246 0.0 1.0 0.00 0.19 0.19 88 1006.2
20260506020651 73 164 2.0 3.0 0.00 0.19 0.19 86 1006.4
20260506020148 73 140 2.0 3.0 0.00 0.19 0.19 86 1006.1
20260506015646 73 167 2.0 4.0 0.00 0.19 0.19 87 1006.0
20260506015143 73 161 2.0 4.0 0.00 0.19 0.19 88 1006.1
20260506014640 73 158 4.0 8.0 0.00 0.19 0.19 88 1006.1
20260506014136 74 136 2.0 3.0 0.00 0.19 0.19 89 1005.6
20260506013634 74 128 3.0 3.0 0.00 0.19 0.19 88 1005.7
20260506013131 75 154 1.0 2.0 0.00 0.19 0.19 89 1005.6
20260506012627 75 153 4.0 5.0 0.00 0.19 0.19 90 1006.0
20260506012123 74 140 4.0 6.0 0.00 0.19 0.19 95 1005.8
20260506011621 74 153 3.0 6.0 0.00 0.19 0.19 99 1005.7
20260506011118 74 132 3.0 4.0 0.00 0.19 0.19 99 1005.6
20260506010612 74 128 3.0 5.0 0.00 0.19 0.19 99 1005.2
20260506010108 74 269 0.0 1.0 0.00 0.19 0.19 99 1004.8
20260506005605 74 262 1.0 1.0 0.00 0.19 0.19 99 1005.0
20260506005101 74 331 1.0 1.0 0.00 0.19 0.19 99 1005.1
20260506004558 73 113 0.0 2.0 0.00 0.19 0.19 99 1005.1
20260506004054 73 160 2.0 3.0 0.00 0.19 0.19 99 1005.1
20260506003551 74 178 1.0 3.0 0.00 0.19 0.19 99 1004.9
20260506003042 73 275 0.0 1.0 0.00 0.19 0.19 98 1004.9
20260506002537 73 314 1.0 3.0 0.05 0.19 0.19 97 1005.0
20260506002033 73 15 0.0 2.0 0.35 0.19 0.19 94 1005.2
20260506001529 75 258 2.0 3.0 0.97 0.18 0.18 90 1005.3
20260506001022 79 170 0.0 2.0 0.73 0.12 0.12 91 1004.8
20260506000519 83 164 1.0 2.0 0.12 0.02 0.02 82 1005.1
20260506000017 84 81 1.0 6.0 0.00 0.00 0.00 76 1004.7
20260505235515 84 16 1.0 3.0 0.00 0.00 0.00 75 1004.3
20260505235011 84 344 2.0 6.0 0.00 0.00 0.00 75 1004.1
20260505234508 84 303 3.0 4.0 0.00 0.00 0.00 75 1004.0
20260505234005 84 319 2.0 4.0 0.00 0.00 0.00 75 1003.9
20260505233502 85 292 2.0 5.0 0.00 0.00 0.00 74 1004.3
20260505233000 85 242 2.0 8.0 0.00 0.00 0.00 74 1004.1
20260505232458 86 300 2.0 3.0 0.00 0.00 0.00 73 1004.0
20260505231954 87 276 3.0 5.0 0.00 0.00 0.00 72 1004.0
20260505231452 87 29 2.0 4.0 0.00 0.00 0.00 70 1004.2
20260505230950 88 348 2.0 3.0 0.00 0.00 0.00 70 1004.1
20260505230447 88 282 3.0 4.0 0.00 0.00 0.00 69 1003.9
20260505225943 89 40 1.0 3.0 0.00 0.00 0.00 66 1003.7
20260505225441 89 329 2.0 5.0 0.00 0.00 0.00 66 1003.8
20260505224936 90 334 5.0 7.0 0.00 0.00 0.00 65 1003.7
20260505224428 92 328 3.0 5.0 0.00 0.00 0.00 64 1003.7
20260505223925 92 53 1.0 4.0 0.00 0.00 0.00 63 1003.7
20260505223422 91 336 4.0 6.0 0.00 0.00 0.00 65 1003.5
20260505222918 91 304 3.0 4.0 0.00 0.00 0.00 65 1003.6
20260505222414 91 233 2.0 2.0 0.00 0.00 0.00 63 1003.8
20260505221910 89 292 4.0 5.0 0.00 0.00 0.00 66 1003.6
20260505221408 90 291 2.0 5.0 0.00 0.00 0.00 64 1003.6
20260505220904 93 318 2.0 6.0 0.00 0.00 0.00 60 1003.7
20260505220402 92 319 1.0 4.0 0.00 0.00 0.00 61 1003.7
20260505215859 90 265 2.0 6.0 0.00 0.00 0.00 64 1003.6
20260505215357 92 294 2.0 3.0 0.00 0.00 0.00 62 1003.7
20260505214855 91 313 2.0 4.0 0.00 0.00 0.00 63 1003.8
20260505214352 92 42 2.0 6.0 0.00 0.00 0.00 62 1003.8
20260505213849 91 291 1.0 3.0 0.00 0.00 0.00 63 1003.9
20260505213347 91 314 2.0 4.0 0.00 0.00 0.00 62 1003.9
20260505212842 92 116 2.0 4.0 0.00 0.00 0.00 61 1003.9
20260505212339 92 132 8.0 9.0 0.00 0.00 0.00 60 1004.0
20260505211835 92 170 1.0 5.0 0.00 0.00 0.00 61 1004.1
20260505211333 93 319 2.0 4.0 0.00 0.00 0.00 60 1004.0
20260505210830 92 322 5.0 5.0 0.00 0.00 0.00 60 1004.0
20260505210327 92 330 4.0 4.0 0.00 0.00 0.00 62 1004.0
20260505205824 92 255 2.0 4.0 0.00 0.00 0.00 60 1004.3
20260505205323 91 294 4.0 6.0 0.00 0.00 0.00 61 1004.4
20260505204819 91 165 2.0 4.0 0.00 0.00 0.00 61 1004.4
20260505204317 91 316 4.0 5.0 0.00 0.00 0.00 62 1004.4
20260505203814 91 316 2.0 4.0 0.00 0.00 0.00 62 1004.4
20260505203310 90 6 1.0 6.0 0.00 0.00 0.00 64 1004.5
20260505202807 91 178 2.0 6.0 0.00 0.00 0.00 62 1004.5
20260505202306 90 284 2.0 5.0 0.00 0.00 0.00 62 1004.6
20260505201759 90 245 0.0 5.0 0.00 0.00 0.00 64 1004.8
20260505201256 89 299 4.0 6.0 0.00 0.00 0.00 63 1004.6
20260505200754 90 339 4.0 5.0 0.00 0.00 0.00 64 1004.7
20260505200251 91 260 2.0 3.0 0.00 0.00 0.00 63 1004.6
20260505195746 91 276 2.0 4.0 0.00 0.00 0.00 63 1004.9
20260505195244 89 242 2.0 4.0 0.00 0.00 0.00 65 1004.6
20260505194736 89 311 2.0 3.0 0.00 0.00 0.00 65 1004.6
20260505194233 88 84 1.0 4.0 0.00 0.00 0.00 67 1004.9
20260505193728 88 325 2.0 7.0 0.00 0.00 0.00 67 1004.9
20260505193226 88 150 3.0 4.0 0.00 0.00 0.00 66 1004.8
20260505192725 88 235 2.0 6.0 0.00 0.00 0.00 67 1005.1
20260505192222 87 287 3.0 4.0 0.00 0.00 0.00 68 1004.9
20260505191720 87 343 2.0 4.0 0.00 0.00 0.00 69 1005.0
20260505191218 86 195 2.0 6.0 0.00 0.00 0.00 69 1004.8
20260505190714 87 312 4.0 4.0 0.00 0.00 0.00 69 1005.0
20260505190213 86 316 4.0 5.0 0.00 0.00 0.00 71 1005.0
20260505185710 86 92 1.0 6.0 0.00 0.00 0.00 71 1005.1
20260505185207 85 344 2.0 5.0 0.00 0.00 0.00 72 1005.2
20260505184703 85 130 3.0 6.0 0.00 0.00 0.00 71 1005.2
20260505184201 85 74 2.0 4.0 0.00 0.00 0.00 70 1005.4
20260505183657 84 330 2.0 6.0 0.00 0.00 0.00 72 1005.2
20260505183155 84 53 2.0 6.0 0.00 0.00 0.00 73 1005.3
20260505182650 84 292 2.0 7.0 0.00 0.00 0.00 73 1005.4
20260505182148 84 52 2.0 6.0 0.00 0.00 0.00 72 1005.3
20260505181644 84 242 2.0 4.0 0.00 0.00 0.00 72 1005.3
20260505181142 84 327 3.0 6.0 0.00 0.00 0.00 72 1005.3
20260505180638 83 124 2.0 6.0 0.00 0.00 0.00 72 1005.4
20260505180136 84 349 4.0 4.0 0.00 0.00 0.00 72 1005.3
20260505175631 83 332 2.0 4.0 0.00 0.00 0.00 73 1005.4
20260505175128 84 317 2.0 6.0 0.00 0.00 0.00 71 1005.3
20260505174625 84 339 3.0 4.0 0.00 0.00 0.00 72 1005.3
20260505174121 84 325 2.0 5.0 0.00 0.00 0.00 71 1005.5
20260505173617 85 308 4.0 5.0 0.00 0.00 0.00 70 1005.3
20260505173113 84 229 1.0 4.0 0.00 0.00 0.00 71 1005.2
20260505172611 84 249 2.0 10.0 0.00 0.00 0.00 72 1005.5
20260505172108 83 354 5.0 7.0 0.00 0.00 0.00 72 1005.3
20260505171603 84 319 2.0 4.0 0.00 0.00 0.00 72 1005.4
20260505171100 83 283 4.0 7.0 0.00 0.00 0.00 72 1005.4
20260505170557 83 266 4.0 6.0 0.00 0.00 0.00 72 1005.5
20260505170054 84 233 2.0 5.0 0.00 0.00 0.00 72 1005.3
20260505165549 83 99 2.0 7.0 0.00 0.00 0.00 73 1005.4
20260505165045 81 57 2.0 5.0 0.00 0.00 0.00 75 1005.5
20260505164541 80 298 1.0 6.0 0.00 0.00 0.00 76 1005.3
20260505164038 81 342 2.0 6.0 0.00 0.00 0.00 74 1005.6
20260505163537 81 123 3.0 6.0 0.00 0.00 0.00 74 1005.5
20260505163033 82 319 2.0 5.0 0.00 0.00 0.00 74 1005.1
20260505162526 82 321 4.0 9.0 0.00 0.00 0.00 73 1005.4
20260505162023 82 17 1.0 8.0 0.00 0.00 0.00 74 1005.0
20260505161520 82 44 3.0 4.0 0.00 0.00 0.00 74 1005.2